| time (UTC) | temp F | wind direction | speed knots | gust knots | rain 1hr in | rain 24hr in | rain mn in | humidity % | barometer mb |
| 20260504050547 | 52 | 360 | 1.7 | 3.5 | 0.00 | 0.00 | 0.00 | 59 | 1004.3 |
| 20260504045548 | 53 | 360 | 0.0 | 1.7 | 0.00 | 0.00 | 0.00 | 59 | 1004.3 |
| 20260504045048 | 53 | 0 | 0.0 | 0.9 | 0.00 | 0.00 | 0.00 | 58 | 1004.3 |
| 20260504044551 | 53 | 0 | 0.0 | 1.7 | 0.00 | 0.00 | 0.00 | 59 | 1004.3 |
| 20260504044048 | 53 | 0 | 0.0 | 1.7 | 0.00 | 0.00 | 0.00 | 58 | 1004.3 |
| 20260504043548 | 54 | 360 | 0.9 | 2.6 | 0.00 | 0.00 | 0.00 | 57 | 1004.3 |
| 20260504043058 | 54 | 360 | 0.9 | 2.6 | 0.00 | 0.00 | 0.00 | 56 | 1004.4 |
| 20260504042548 | 54 | 360 | 0.9 | 2.6 | 0.00 | 0.00 | 0.00 | 56 | 1004.4 |
| 20260504042046 | 55 | 360 | 0.9 | 2.6 | 0.00 | 0.00 | 0.00 | 55 | 1004.4 |
| 20260504041554 | 55 | 360 | 0.9 | 2.6 | 0.00 | 0.00 | 0.00 | 55 | 1004.4 |
| 20260504041047 | 55 | 360 | 0.9 | 2.6 | 0.00 | 0.00 | 0.00 | 55 | 1004.4 |
| 20260504040547 | 55 | 360 | 0.9 | 2.6 | 0.00 | 0.00 | 0.00 | 55 | 1004.4 |
| 20260504040053 | 55 | 360 | 0.9 | 2.6 | 0.00 | 0.00 | 0.00 | 55 | 1004.5 |
| 20260504035547 | 55 | 360 | 0.9 | 2.6 | 0.00 | 0.00 | 0.00 | 56 | 1004.5 |
| 20260504035047 | 54 | 360 | 0.9 | 2.6 | 0.00 | 0.00 | 0.00 | 56 | 1004.6 |
| 20260504034551 | 54 | 360 | 0.9 | 2.6 | 0.00 | 0.00 | 0.00 | 57 | 1004.6 |
| 20260504034047 | 55 | 360 | 0.0 | 1.7 | 0.00 | 0.00 | 0.00 | 57 | 1004.6 |
| 20260504033550 | 55 | 0 | 0.0 | 1.7 | 0.00 | 0.00 | 0.00 | 57 | 1004.6 |
| 20260504033056 | 55 | 0 | 0.0 | 0.0 | 0.00 | 0.00 | 0.00 | 56 | 1004.7 |
| 20260504032548 | 56 | 0 | 0.0 | 0.9 | 0.00 | 0.00 | 0.00 | 55 | 1004.7 |
| 20260504032050 | 56 | 0 | 0.0 | 1.7 | 0.00 | 0.00 | 0.00 | 54 | 1004.7 |
| 20260504031554 | 56 | 0 | 0.0 | 1.7 | 0.00 | 0.00 | 0.00 | 53 | 1004.7 |
| 20260504031044 | 57 | 360 | 0.9 | 1.7 | 0.00 | 0.00 | 0.00 | 52 | 1004.6 |
| 20260504030548 | 57 | 360 | 0.0 | 2.6 | 0.00 | 0.00 | 0.00 | 52 | 1004.6 |
| 20260504030052 | 57 | 360 | 0.9 | 3.5 | 0.00 | 0.00 | 0.00 | 51 | 1004.6 |
| 20260504025547 | 57 | 360 | 0.9 | 3.5 | 0.00 | 0.00 | 0.00 | 51 | 1004.6 |
| 20260504025050 | 57 | 360 | 1.7 | 3.5 | 0.00 | 0.00 | 0.00 | 51 | 1004.5 |
| 20260504024557 | 57 | 360 | 0.9 | 3.5 | 0.00 | 0.00 | 0.00 | 51 | 1004.5 |
| 20260504024046 | 58 | 360 | 0.9 | 2.6 | 0.00 | 0.00 | 0.00 | 50 | 1004.5 |
| 20260504023547 | 58 | 360 | 0.9 | 3.5 | 0.00 | 0.00 | 0.00 | 50 | 1004.5 |
| 20260504023053 | 58 | 360 | 1.7 | 3.5 | 0.00 | 0.00 | 0.00 | 50 | 1004.5 |
| 20260504022544 | 58 | 360 | 1.7 | 3.5 | 0.00 | 0.00 | 0.00 | 50 | 1004.4 |
| 20260504022046 | 59 | 360 | 1.7 | 3.5 | 0.00 | 0.00 | 0.00 | 50 | 1004.3 |
| 20260504021552 | 59 | 360 | 2.6 | 3.5 | 0.00 | 0.00 | 0.00 | 50 | 1004.4 |
| 20260504021048 | 59 | 360 | 1.7 | 4.3 | 0.00 | 0.00 | 0.00 | 50 | 1004.2 |
| 20260504020548 | 59 | 360 | 2.6 | 4.3 | 0.00 | 0.00 | 0.00 | 50 | 1004.2 |
| 20260504020127 | 59 | 360 | 2.6 | 4.3 | 0.00 | 0.00 | 0.00 | 50 | 1004.2 |
| 20260504015548 | 60 | 360 | 2.6 | 4.3 | 0.00 | 0.00 | 0.00 | 49 | 1004.2 |
| 20260504015049 | 60 | 360 | 2.6 | 3.5 | 0.00 | 0.00 | 0.00 | 49 | 1004.1 |
| 20260504014603 | 60 | 360 | 1.7 | 3.5 | 0.00 | 0.00 | 0.00 | 48 | 1004.1 |
| 20260504014046 | 61 | 360 | 1.7 | 2.6 | 0.00 | 0.00 | 0.00 | 47 | 1004.0 |
| 20260504013547 | 62 | 360 | 0.9 | 2.6 | 0.00 | 0.00 | 0.00 | 46 | 1003.9 |
| 20260504013115 | 62 | 360 | 0.0 | 1.7 | 0.00 | 0.00 | 0.00 | 46 | 1003.9 |
| 20260504012548 | 63 | 360 | 0.9 | 1.7 | 0.00 | 0.00 | 0.00 | 45 | 1003.9 |
| 20260504012049 | 63 | 360 | 0.0 | 1.7 | 0.00 | 0.00 | 0.00 | 44 | 1003.8 |
| 20260504011553 | 63 | 0 | 0.0 | 2.6 | 0.00 | 0.00 | 0.00 | 44 | 1003.8 |
| 20260504011046 | 64 | 360 | 0.0 | 2.6 | 0.00 | 0.00 | 0.00 | 43 | 1003.7 |
| 20260504010546 | 64 | 360 | 0.0 | 2.6 | 0.00 | 0.00 | 0.00 | 43 | 1003.8 |
| 20260504010048 | 64 | 360 | 0.9 | 3.5 | 0.00 | 0.00 | 0.00 | 43 | 1003.8 |
| 20260504005547 | 64 | 360 | 0.9 | 3.5 | 0.00 | 0.00 | 0.00 | 43 | 1003.7 |
| 20260504005047 | 64 | 360 | 0.9 | 3.5 | 0.00 | 0.00 | 0.00 | 43 | 1003.7 |
| 20260504004619 | 65 | 360 | 0.9 | 3.5 | 0.00 | 0.00 | 0.00 | 44 | 1003.6 |
| 20260504004049 | 65 | 360 | 1.7 | 4.3 | 0.00 | 0.00 | 0.00 | 44 | 1003.6 |
| 20260504003548 | 65 | 299 | 0.9 | 4.3 | 0.00 | 0.00 | 0.00 | 45 | 1003.5 |
| 20260504003053 | 66 | 292 | 1.7 | 7.0 | 0.00 | 0.00 | 0.00 | 43 | 1003.6 |
| 20260504002544 | 66 | 360 | 2.6 | 7.0 | 0.00 | 0.00 | 0.00 | 44 | 1003.6 |
| 20260504002048 | 66 | 298 | 2.6 | 6.1 | 0.00 | 0.00 | 0.00 | 43 | 1003.6 |
| 20260504001618 | 67 | 300 | 1.7 | 3.5 | 0.00 | 0.00 | 0.00 | 44 | 1003.5 |
| 20260504001047 | 67 | 299 | 1.7 | 5.2 | 0.00 | 0.00 | 0.00 | 44 | 1003.4 |
| 20260504000546 | 68 | 296 | 0.9 | 7.0 | 0.00 | 0.00 | 0.00 | 44 | 1003.4 |
| 20260503235546 | 68 | 282 | 2.6 | 8.7 | 0.00 | 0.00 | 0.00 | 40 | 1003.4 |
| 20260503235047 | 69 | 281 | 2.6 | 8.7 | 0.00 | 0.00 | 0.00 | 40 | 1003.2 |
| 20260503234558 | 69 | 259 | 1.7 | 8.7 | 0.00 | 0.00 | 0.00 | 41 | 1003.1 |
| 20260503234047 | 69 | 288 | 0.9 | 8.7 | 0.00 | 0.00 | 0.00 | 43 | 1003.2 |
| 20260503233549 | 69 | 281 | 2.6 | 8.7 | 0.00 | 0.00 | 0.00 | 42 | 1003.2 |
| 20260503233049 | 69 | 298 | 1.7 | 8.7 | 0.00 | 0.00 | 0.00 | 43 | 1003.3 |
| 20260503232548 | 69 | 286 | 3.5 | 8.7 | 0.00 | 0.00 | 0.00 | 42 | 1003.2 |
| 20260503232048 | 70 | 296 | 2.6 | 7.0 | 0.00 | 0.00 | 0.00 | 42 | 1003.3 |
| 20260503231553 | 70 | 281 | 1.7 | 9.6 | 0.00 | 0.00 | 0.00 | 41 | 1003.3 |
| 20260503231048 | 70 | 283 | 2.6 | 9.6 | 0.00 | 0.00 | 0.00 | 42 | 1003.3 |
| 20260503230548 | 70 | 285 | 2.6 | 9.6 | 0.00 | 0.00 | 0.00 | 43 | 1003.5 |
| 20260503230110 | 70 | 303 | 3.5 | 9.6 | 0.00 | 0.00 | 0.00 | 40 | 1003.4 |
| 20260503225543 | 70 | 284 | 4.3 | 11.3 | 0.00 | 0.00 | 0.00 | 40 | 1003.6 |
| 20260503225047 | 70 | 312 | 6.1 | 12.2 | 0.00 | 0.00 | 0.00 | 40 | 1003.5 |
| 20260503224556 | 70 | 311 | 6.1 | 12.2 | 0.00 | 0.00 | 0.00 | 38 | 1003.6 |
| 20260503224048 | 70 | 295 | 4.3 | 12.2 | 0.00 | 0.00 | 0.00 | 40 | 1003.6 |
| 20260503223549 | 70 | 290 | 5.2 | 11.3 | 0.00 | 0.00 | 0.00 | 44 | 1003.6 |
| 20260503223053 | 70 | 329 | 3.5 | 8.7 | 0.00 | 0.00 | 0.00 | 41 | 1003.6 |
| 20260503222548 | 70 | 273 | 2.6 | 9.6 | 0.00 | 0.00 | 0.00 | 44 | 1003.6 |
| 20260503222048 | 70 | 255 | 4.3 | 11.3 | 0.00 | 0.00 | 0.00 | 44 | 1003.7 |
| 20260503221604 | 71 | 284 | 3.5 | 11.3 | 0.00 | 0.00 | 0.00 | 44 | 1003.8 |
| 20260503221047 | 71 | 277 | 4.3 | 11.3 | 0.00 | 0.00 | 0.00 | 43 | 1003.5 |
| 20260503220548 | 71 | 253 | 1.7 | 9.6 | 0.00 | 0.00 | 0.00 | 41 | 1003.7 |
| 20260503220111 | 71 | 279 | 2.6 | 9.6 | 0.00 | 0.00 | 0.00 | 43 | 1003.7 |
| 20260503215548 | 71 | 277 | 2.6 | 7.8 | 0.00 | 0.00 | 0.00 | 45 | 1003.8 |
| 20260503215048 | 71 | 281 | 4.3 | 8.7 | 0.00 | 0.00 | 0.00 | 43 | 1003.7 |
| 20260503214558 | 71 | 263 | 1.7 | 11.3 | 0.00 | 0.00 | 0.00 | 46 | 1003.8 |
| 20260503214044 | 71 | 286 | 2.6 | 11.3 | 0.00 | 0.00 | 0.00 | 44 | 1003.8 |
| 20260503213549 | 71 | 218 | 3.5 | 10.4 | 0.00 | 0.00 | 0.00 | 45 | 1003.8 |
| 20260503213053 | 70 | 282 | 2.6 | 8.7 | 0.00 | 0.00 | 0.00 | 47 | 1003.8 |
| 20260503212550 | 70 | 297 | 1.7 | 8.7 | 0.00 | 0.00 | 0.00 | 46 | 1003.7 |
| 20260503212046 | 70 | 304 | 2.6 | 7.8 | 0.00 | 0.00 | 0.00 | 43 | 1003.9 |
| 20260503211553 | 70 | 265 | 0.9 | 8.7 | 0.00 | 0.00 | 0.00 | 50 | 1003.9 |
| 20260503211047 | 70 | 264 | 3.5 | 10.4 | 0.00 | 0.00 | 0.00 | 45 | 1004.0 |
| 20260503210548 | 70 | 257 | 3.5 | 10.4 | 0.00 | 0.00 | 0.00 | 47 | 1004.0 |
| 20260503210056 | 70 | 308 | 1.7 | 9.6 | 0.00 | 0.00 | 0.00 | 48 | 1004.1 |
| 20260503205547 | 70 | 284 | 3.5 | 9.6 | 0.00 | 0.00 | 0.00 | 47 | 1004.2 |
| 20260503205048 | 69 | 300 | 2.6 | 9.6 | 0.00 | 0.00 | 0.00 | 49 | 1004.1 |
| 20260503204555 | 69 | 244 | 3.5 | 9.6 | 0.00 | 0.00 | 0.00 | 43 | 1004.1 |
| 20260503204047 | 69 | 226 | 2.6 | 13.9 | 0.00 | 0.00 | 0.00 | 49 | 1004.2 |
| 20260503203544 | 68 | 269 | 4.3 | 13.9 | 0.00 | 0.00 | 0.00 | 49 | 1004.4 |
| 20260503203108 | 68 | 263 | 4.3 | 13.9 | 0.00 | 0.00 | 0.00 | 48 | 1004.6 |
| 20260503202547 | 68 | 247 | 6.1 | 13.9 | 0.00 | 0.00 | 0.00 | 47 | 1004.5 |
| 20260503202048 | 68 | 232 | 6.1 | 13.9 | 0.00 | 0.00 | 0.00 | 46 | 1004.5 |
| 20260503201551 | 68 | 238 | 3.5 | 13.0 | 0.00 | 0.00 | 0.00 | 46 | 1004.5 |
| 20260503201047 | 68 | 279 | 2.6 | 11.3 | 0.00 | 0.00 | 0.00 | 49 | 1004.7 |
| 20260503200548 | 68 | 196 | 4.3 | 9.6 | 0.00 | 0.00 | 0.00 | 46 | 1004.8 |
| 20260503200049 | 68 | 360 | 2.6 | 10.4 | 0.00 | 0.00 | 0.00 | 51 | 1004.8 |
| 20260503195548 | 67 | 266 | 3.5 | 10.4 | 0.00 | 0.00 | 0.00 | 53 | 1005.1 |
| 20260503195047 | 67 | 288 | 5.2 | 11.3 | 0.00 | 0.00 | 0.00 | 50 | 1005.0 |
| 20260503194553 | 67 | 286 | 5.2 | 11.3 | 0.00 | 0.00 | 0.00 | 49 | 1005.2 |
| 20260503194047 | 67 | 263 | 3.5 | 13.0 | 0.00 | 0.00 | 0.00 | 46 | 1005.1 |
| 20260503193547 | 67 | 269 | 4.3 | 13.0 | 0.00 | 0.00 | 0.00 | 51 | 1005.3 |
| 20260503193054 | 66 | 255 | 3.5 | 10.4 | 0.00 | 0.00 | 0.00 | 51 | 1005.4 |
| 20260503192547 | 66 | 360 | 4.3 | 13.0 | 0.00 | 0.00 | 0.00 | 49 | 1005.6 |
| 20260503192047 | 66 | 216 | 4.3 | 15.6 | 0.00 | 0.00 | 0.00 | 51 | 1005.6 |
| 20260503191556 | 66 | 360 | 4.3 | 15.6 | 0.00 | 0.00 | 0.00 | 48 | 1005.6 |
| 20260503191047 | 66 | 360 | 5.2 | 13.9 | 0.00 | 0.00 | 0.00 | 46 | 1005.6 |
| 20260503190546 | 66 | 360 | 3.5 | 13.9 | 0.00 | 0.00 | 0.00 | 49 | 1005.6 |
| 20260503185548 | 66 | 360 | 4.3 | 10.4 | 0.00 | 0.00 | 0.00 | 52 | 1005.5 |
| 20260503185048 | 66 | 360 | 3.5 | 16.5 | 0.00 | 0.00 | 0.00 | 51 | 1005.7 |
| 20260503184549 | 65 | 360 | 4.3 | 16.5 | 0.00 | 0.00 | 0.00 | 52 | 1005.7 |
| 20260503184050 | 64 | 360 | 7.8 | 16.5 | 0.00 | 0.00 | 0.00 | 52 | 1005.8 |
| 20260503183548 | 65 | 360 | 7.8 | 13.9 | 0.00 | 0.00 | 0.00 | 48 | 1005.8 |
| 20260503183053 | 65 | 180 | 4.3 | 17.4 | 0.00 | 0.00 | 0.00 | 51 | 1005.8 |
| 20260503182548 | 65 | 200 | 3.5 | 17.4 | 0.00 | 0.00 | 0.00 | 49 | 1005.8 |
| 20260503182048 | 64 | 360 | 6.1 | 15.6 | 0.00 | 0.00 | 0.00 | 47 | 1005.8 |
| 20260503181559 | 64 | 360 | 6.1 | 14.8 | 0.00 | 0.00 | 0.00 | 50 | 1005.7 |
| 20260503181047 | 65 | 360 | 3.5 | 14.8 | 0.00 | 0.00 | 0.00 | 53 | 1005.7 |
| 20260503180547 | 64 | 360 | 6.1 | 16.5 | 0.00 | 0.00 | 0.00 | 50 | 1005.9 |
| 20260503180054 | 64 | 360 | 3.5 | 16.5 | 0.00 | 0.00 | 0.00 | 52 | 1005.9 |
| 20260503175546 | 63 | 252 | 8.7 | 16.5 | 0.00 | 0.00 | 0.00 | 49 | 1006.0 |
| 20260503175047 | 63 | 192 | 8.7 | 16.5 | 0.00 | 0.00 | 0.00 | 47 | 1006.0 |
| 20260503174550 | 63 | 360 | 6.1 | 14.8 | 0.00 | 0.00 | 0.00 | 51 | 1006.1 |
| 20260503174048 | 63 | 360 | 6.1 | 18.2 | 0.00 | 0.00 | 0.00 | 51 | 1006.2 |
| 20260503173548 | 63 | 360 | 6.1 | 18.2 | 0.00 | 0.00 | 0.00 | 51 | 1006.3 |
| 20260503173050 | 63 | 360 | 7.8 | 15.6 | 0.00 | 0.00 | 0.00 | 49 | 1006.4 |
| 20260503172548 | 63 | 222 | 6.1 | 18.2 | 0.00 | 0.00 | 0.00 | 49 | 1006.4 |
| 20260503172047 | 62 | 360 | 8.7 | 18.2 | 0.00 | 0.00 | 0.00 | 52 | 1006.4 |
| 20260503171549 | 62 | 227 | 7.0 | 15.6 | 0.00 | 0.00 | 0.00 | 51 | 1006.5 |
| 20260503171048 | 61 | 247 | 6.1 | 17.4 | 0.00 | 0.00 | 0.00 | 54 | 1006.5 |
| 20260503170548 | 61 | 360 | 7.8 | 17.4 | 0.00 | 0.00 | 0.00 | 52 | 1006.6 |
| 20260503150546 | 56 | 360 | 7.8 | 17.4 | 0.00 | 0.00 | 0.00 | 62 | 1008.5 |
| 20260503131046 | 50 | 360 | 7.0 | 16.5 | 0.00 | 0.00 | 0.00 | 70 | 1009.6 |
| 20260503130548 | 50 | 360 | 7.0 | 14.8 | 0.00 | 0.00 | 0.00 | 69 | 1009.7 |
| 20260503110548 | 48 | 360 | 1.7 | 9.6 | 0.00 | 0.00 | 0.00 | 59 | 1010.0 |
| 20260503100105 | 49 | 229 | 4.3 | 13.0 | 0.00 | 0.00 | 0.00 | 54 | 1010.2 |
| 20260503081600 | 47 | 360 | 3.5 | 9.6 | 0.00 | 0.00 | 0.00 | 55 | 1011.2 |
| 20260503081048 | 47 | 360 | 2.6 | 9.6 | 0.00 | 0.00 | 0.00 | 55 | 1011.2 |
| 20260503080547 | 47 | 360 | 3.5 | 9.6 | 0.00 | 0.00 | 0.00 | 55 | 1011.3 |
| 20260503072544 | 46 | 360 | 2.6 | 11.3 | 0.00 | 0.00 | 0.00 | 56 | 1011.4 |
| 20260503072048 | 46 | 360 | 1.7 | 7.0 | 0.00 | 0.00 | 0.00 | 56 | 1011.3 |
| 20260503071559 | 46 | 360 | 2.6 | 7.8 | 0.00 | 0.00 | 0.00 | 56 | 1011.4 |
| 20260503071047 | 46 | 261 | 2.6 | 7.8 | 0.00 | 0.00 | 0.00 | 56 | 1011.4 |
| 20260503070550 | 46 | 360 | 0.9 | 7.0 | 0.00 | 0.00 | 0.00 | 56 | 1011.5 |
| 20260503060115 | 48 | 246 | 1.7 | 8.7 | 0.00 | 0.00 | 0.00 | 51 | 1011.9 |
| 20260503055047 | 48 | 259 | 2.6 | 12.2 | 0.00 | 0.00 | 0.00 | 50 | 1012.0 |
| 20260503054602 | 48 | 194 | 1.7 | 8.7 | 0.00 | 0.00 | 0.00 | 51 | 1012.0 |
| 20260503054047 | 48 | 279 | 1.7 | 8.7 | 0.00 | 0.00 | 0.00 | 50 | 1012.0 |
| 20260503053548 | 48 | 225 | 1.7 | 8.7 | 0.00 | 0.00 | 0.00 | 50 | 1012.0 |
| 20260503053052 | 49 | 266 | 1.7 | 10.4 | 0.00 | 0.00 | 0.00 | 50 | 1012.0 |
| 20260503052551 | 49 | 258 | 2.6 | 10.4 | 0.00 | 0.00 | 0.00 | 50 | 1012.1 |